Wind_Gust
0 0 0 0 0 0 0 0 0 0 0 0 0 0 0 0 0 0 0 0 0 0 0 0 0 0 0 0 0 0 0 0 0 0 0 0 0 0 0 0 0 0 0 0 0 0 0 0 0 0 0 0 0 0 0 0 0 0 0 0 0 0 0 0 0 0 0 0 0 0 0 0 0 0 0 0 0 0 0 0 0 0 0 0 0 0 0
0 0 0 0 0 0 0 0 0 0 0 0 0 0 0 0 0 0 0 0 0 0 0 0 0 0 0 0 0 0 0 0 0 0 0 0 0 0 0 0 0 0 0 0 0 0 0 0 0 0 0 0 0 0 0 0 0 0 0 0 0 0 0 0 0 0 0 0 0 0 0 0 0 0 0 0 0 0 0 0 0 0 0 0 0 0 0
0 0 0 0 0 0 0 0 0 0 0 0 0 0 0 0 0 0 0 0 0 0 0 0 0 0 0 0 0 0 0 0 0 0 0 0 0 0 0 0 0 0 0 0 0 0 0 0 0 0 0 0 0 0 0 0 0 0 0 0 0 0 0 0 0 0 0 0 0 0 0 0 0 0 0 0 0 0 0 0 0 0 0 0 0 0 0
0 0 0 0 0 0 0 0 0 0 0 0 0 0 0 0 0 0 0 0 0 0 0 0 0 0 0 0 0 0 0 0 0 0 0 0 0 0 0 0 0 0 0 0 0 0 0 0 0 0 0 0 0 0 0 0 0 0 0 0 0 0 0 0 0 0 0 0 0 0 0 0 0 0 0 0 0 0 0 0 0 0 0 0 0 0 0
0 0 0 0 0 0 0 0 0 0 0 0 0 0 0 0 0 0 0 0 0 0 0 0 0 0 0 0 0 0 0 0 0 0 0 0 0 0 0 0 0 0 0 0 0 0 0 0 0 0 0 0 0 0 0 0 0 0 0 0 0 0 0 0 0 0 0 0 0 0 0 0 0 0 0 0 0 0 0 0 0 0 0 0 0 0 0
0 0 0 0 0 0 0 0 0 0 0 0 0 0 0 0 0 0 0 0 0 0 0 0 0 0 0 0 0 0 0 0 0 0 0 0 0 0 0 0 0 0 0 0 0 0 0 0 0 0 0 0 0 0 0 0 0 0 0 0 0 0 0 0 0 0 0 0 0 0 0 0 0 0 0 0 0 0 0 0 0 0 0 0 0 0 0
0 0 0 0 0 0 0 0 0 0 0 0 0 0 0 0 0 0 0 0 0 0 0 0 0 0 0 0 0 0 0 0 0 0 0 0 0 0 0 0 0 0 0 0 0 0 0 0 0 0 0 0 0 0 0 0 0 0 0 0 0 0 0 0 0 0 0 0 0 0 0 0 0 0 0 0 0 0 0 0 0 0 0 0 0 0 0
0 0 0 0 0 0 0 0 0 0 0 0 0 0 0 0 0 0 0 0 0 0 0 0 0 0 0 0 0 0 0 0 0 0 0 0 0 0 0 0 0 0 0 0 0 0 0 0 0 0 0 0 0 0 0 0 0 0 0 0 0 0 0 0 0 0 0 0 0 0 0 0 0 0 0 0 0 0 0 0 0 0 0 0 0 0 0
0 0 0 0 0 0 0 0 0 0 0 0 0 0 0 0 0 0 0 0 0 0 0 0 0 0 0 0 0 0 0 0 0 0 0 0 0 0 0 0 0 0 0 0 0 0 0 0 0 0 0 0 0 0 0 0 0 0 0 0 0 0 0 0 0 0 0 0 0 0 0 0 0 0 0 0 0 0 0 0 0 0 0 0 0 0 0
0 0 0 0 0 0 0 0 0 0 0 0 0 0 0 0 0 0 0 0 0 0 0 0 0 0 0 0 0 0 0 0 0 0 0 0 0 0 0 0 0 0 0 0 0 0 0 0 0 0 0 0 0 0 0 0 0 0 0 0 0 0 0 0 0 0 0 0 0 0 0 0 0 0 0 0 0 0 0 0 0 0 0 0 0 0 0
0 0 0 0 0 0 0 0 0 0 0 0 0 0 0 0 0 0 0 0 0 0 0 0 0 0 0 0 0 0 0 0 0 0 0 0 0 0 0 0 0 0 0 0 0 0 0 0 0 0 0 0 0 0 0 0 0 0 0 0 0 0 0 0 0 0 0 0 0 0 0 0 0 0 0 0 0 0 0 0 0 0 0 0 0 0 0
0 0 0 0 0 0 0 0 0 0 0 0 0 0 0 0 0 0 0 0 0 0 0 0 0 0 0 0 0 0 0 0 0 0 0 0 0 0 0 0 0 0 0 0 0 0 0 0 0 0 0 0 0 0 0 0 0 0 0 0 0 0 0 0 0 0 0 0 0 0 0 0 0 0 0 0 0 0 0 0 0 0 0 0 0 0 0
0 0 0 0 0 0 0 0 0 0 0 0 0 0 0 0 0 0 0 0 0 0 0 0 0 0 0 0 0 0 0 0 0 0 0 0 0 0 0 0 0 0 0 0 0 0 0 0 0 0 0 0 0 0 0 0 0 0 0 0 0 0 0 0 0 0 0 0 0 0 0 0 0 0 0 0 0 0 0 0 0 0 0 0 0 0 0
0 0 0 0 0 0 0 0 0 0 0 0 0 0 0 0 0 0 0 0 0 0 0 0 0 0 0 0 0 0 0 0 0 0 0 0 0 0 0 0 0 0 0 0 0 0 0 0 0 0 0 0 0 0 0 0 0 0 0 0 0 0 0 0 0 0 0 0 0 0 0 0 0 0 0 0 0 0 0 0 0 0 0 0 0 0 0
0 0 0 0 0 0 0 0 0 0 0 0 0 0 0 0 0 0 0 0 0 0 0 0 0 0 0 0 0 0 0 0 0 0 0 0 0 0 0 0 0 0 0 0 0 0 0 0 0 0 0 0 0 0 0 0 0 0 0 0 0 0 0 0 0 0 0 0 0 0 0 0 0 0 0 0 0 0 0 0 0 0 0 0 0 0 0
0 0 0 0 0 0 0 0 0 0 0 0 0 0 0 0 0 0 0 0 0 0 0 0 0 0 0 0 0 0 0 0 0 0 0 0 0 0 0 0 0 0 0 0 0 0 0 0 0 0 0 0 0 0 0 0 0 0 0 0 0 0 0 0 0 0 0 0 0 0 0 0 0 0 0 0 0 0 0 0 0 0 0 0 0 0 0
0 0 0 0 0 0 0 0 0 0 0 0 0 0 0 0 0 0 0 0 0 0 0 0 0 0 0 0 0 0 0 0 0 0 0 0 0 0 0 0 0 0 0 0 0 0 0 0 0 0 0 0 0 0 0 0 0 0 0 0 0 0 0 0 0 0 0 0 0 0 0 0 0 0 0 0 0 0 0 0 0 0 0 0 0 0 0
0 0 0 0 0 0 0 0 0 0 0 0 0 0 0 0 0 0 0 0 0 0 0 0 0 0 0 0 0 0 0 0 0 0 0 0 0 0 0 0 0 0 0 0 0 0 0 0 0 0 0 0 0 0 0 0 0 0 0 0 0 0 0 0 0 0 0 0 0 0 0 0 0 0 0 0 0 0 0 0 0 0 0 0 0 0 0
0 0 0 0 0 0 0 0 0 0 0 0 0 0 0 0 0 0 0 0 0 0 0 0 0 0 0 0 0 0 0 0 0 0 0 0 0 0 0 0 0 0 0 0 0 0 0 0 0 0 0 0 0 0 0 0 0 0 0 0 0 0 0 0 0 0 0 0 0 0 0 0 0 0 0 0 0 0 0 0 0 0 0 0 0 0 0
0 0 0 0 0 0 0 0 0 0 0 0 0 0 0 0 0 0 0 0 0 0 0 0 0 0 0 0 0 0 0 0 0 0 0 0 0 0 0 0 0 0 0 0 0 0 0 0 0 0 0 0 0 0 0 0 0 0 0 0 0 0 0 0 0 0 0 0 0 0 0 0 0 0 0 0 0 0 0 0 0 0 0 0 0 0 0
0 0 0 0 0 0 0 0 0 0 0 0 0 0 0 0 0 0 0 0 0 0 0 0 0 0 0 0 0 0 0 0 0 0 0 0 0 0 0 0 0 0 0 0 0 0 0 0 0 0 0 0 0 0 0 0 0 0 0 0 0 0 0 0 0 0 0 0 0 0 0 0 0 0 0 0 0 0 0 0 0 0 0 0 0 0 0
0 0 0 0 0 0 0 0 0 0 0 0 0 0 0 0 0 0 0 0 0 0 0 0 0 0 0 0 0 0 0 0 0 0 0 0 0 0 0 0 0 0 0 0 0 0 0 0 0 0 0 0 0 0 0 0 0 0 0 0 0 0 0 0 0 0 0 0 0 0 0 0 0 0 0 0 0 0 0 0 0 0 0 0 0 0 0
0 0 0 0 0 0 0 0 0 0 0 0 0 0 0 0 0 0 0 0 0 0 0 0 0 0 0 0 0 0 0 0 0 0 0 0 0 0 0 0 0 0 0 0 0 0 0 0 0 0 0 0 0 0 0 0 0 0 0 0 0 0 0 0 0 0 0 0 0 0 0 0 0 0 0 0 0 0 0 0 0 0 0 0 0 0 0
0 0 0 0 0 0 0 0 0 0 0 0 0 0 0 0 0 0 0 0 0 0 0 0 0 0 0 0 0 0 0 0 0 0 0 0 0 0 0 0 0 0 0 0 0 0 0 0 0 0 0 0 0 0 0 0 0 0 0 0 0 0 0 0 0 0 0 0 0 0 0 0 0 0 0 0 0 0 0 0 0 0 0 0 0 0 0
0 0 0 0 0 0 0 0 0 0 0 0 0 0 0 0 0 0 0 0 0 0 0 0 0 0 0 0 0 0 0 0 0 0 0 0 0 0 0 0 0 0 0 0 0 0 0 0 0 0 0 0 0 0 0 0 0 0 0 0 0 0 0 0 0 0 0 0 0 0 0 0 0 0 0 0 0 0 0 0 0 0 0 0 0 0 0
0 0 0 0 0 0 0 0 0 0 0 0 0 0 0 0 0 0 0 0 0 0 0 0 0 0 0 0 0 0 0 0 0 0 0 0 0 0 0 0 0 0 0 0 0 0 0 0 0 0 0 0 0 0 0 0 0 0 0 0 0 0 0 0 0 0 0 0 0 0 0 0 0 0 0 0 0 0 0 0 0 0 0 0 0 0 0
0 0 0 0 0 0 0 0 0 0 0 0 0 0 0 0 0 0 0 0 0 0 0 0 0 0 0 0 0 0 0 0 0 0 0 0 0 0 0 0 0 0 0 0 0 0 0 0 0 0 0 0 0 0 0 0 0 0 0 0 0 0 0 0 0 0 0 0 0 0 0 0 0 0 0 0 0 0 0 0 0 0 0 0 0 0 0
0 0 0 0 0 0 0 0 0 0 0 0 0 0 0 0 0 0 0 0 0 0 0 0 0 0 0 0 0 0 0 0 0 0 0 0 0 0 0 0 0 0 0 0 0 0 0 0 0 0 0 0 0 0 0 0 0 0 0 0 0 0 0 0 0 0 0 0 0 0 0 0 0 0 0 0 0 0 0 0 0 0 0 0 0 0 0
0 0 0 0 0 0 0 0 0 0 0 0 0 0 0 0 0 0 0 0 0 0 0 0 0 0 0 0 0 0 0 0 0 0 0 0 0 0 0 0 0 0 0 0 0 0 0 0 0 0 0 0 0 0 0 0 0 0 0 0 0 0 0 0 0 0 0 0 0 0 0 0 0 0 0 0 0 0 0 0 0 0 0 0 0 0 0
0 0 0 0 0 0 0 0 0 0 0 0 0 0 0 0 0 0 0 0 0 0 0 0 0 0 0 0 0 0 0 0 0 0 0 0 0 0 0 0 0 0 0 0 0 0 0 0 0 0 0 0 0 0 0 0 0 0 0 0 0 0 0 0 0 0 0 0 0 0 0 0 0 0 0 0 0 0 0 0 0 0 0 0 0 0 0
0 0 0 0 0 0 0 0 0 0 0 0 0 0 0 0 0 0 0 0 0 0 0 0 0 0 0 0 0 0 0 0 0 0 0 0 0 0 0 0 0 0 0 0 0 0 0 0 0 0 0 0 0 0 0 0 0 0 0 0 0 0 0 0 0 0 0 0 0 0 0 0 0 0 0 0 0 0 0 0 0 0 0 0 0 0 0
0 0 0 0 0 0 0 0 0 0 0 0 0 0 0 0 0 0 0 0 0 0 0 0 0 0 0 0 0 0 0 0 0 0 0 0 0 0 0 0 0 0 0 0 0 0 0 0 0 0 0 0 0 0 0 0 0 0 0 0 0 0 0 0 0 0 0 0 0 0 0 0 0 0 0 0 0 0 0 0 0 0 0 0 0 0 0
0 0 0 0 0 0 0 0 0 0 0 0 0 0 0 0 0 0 0 0 0 0 0 0 0 0 0 0 0 0 0 0 0 0 0 0 0 0 0 0 0 0 0 0 0 0 0 0 0 0 0 0 0 0 0 0 0 0 0 0 0 0 0 0 0 0 0 0 0 0 0 0 0 0 0 0 0 0 0 0 0 0 0 0 0 0 0
0 0 0 0 0 0 0 0 0 0 0 0 0 0 0 0 0 0 0 0 0 0 0 0 0 0 0 0 0 0 0 0 0 0 0 0 0 0 0 0 0 0 0 0 0 0 0 0 0 0 0 0 0 0 0 0 0 0 0 0 0 0 0 0 0 0 0 0 0 0 0 0 0 0 0 0 0 0 0 0 0 0 0 0 0 0 0
0 0 0 0 0 0 0 0 0 0 0 0 0 0 0 0 0 0 0 0 0 0 0 0 0 0 0 0 0 0 0 0 0 0 0 0 0 0 0 0 0 0 0 0 0 0 0 0 0 0 0 0 0 0 0 0 0 0 0 0 0 0 0 0 0 0 0 0 0 0 0 0 0 0 0 0 0 0 0 0 0 0 0 0 0 0 0
0 0 0 0 0 0 0 0 0 0 0 0 0 0 0 0 0 0 0 0 0 0 0 0 0 0 0 0 0 0 0 0 0 0 0 0 0 0 0 0 0 0 0 0 0 0 0 0 0 0 0 0 0 0 0 0 0 0 0 0 0 0 0 0 0 0 0 0 0 0 0 0 0 0 0 0 0 0 0 0 0 0 0 0 0 0 0
0 0 0 0 0 0 0 0 0 0 0 0 0 0 0 0 0 0 0 0 0 0 0 0 0 0 0 0 0 0 0 0 0 0 0 0 0 0 0 0 0 0 0 0 0 0 0 0 0 0 0 0 0 0 0 0 0 0 0 0 0 0 0 0 0 0 0 0 0 0 0 0 0 0 0 0 0 0 0 0 0 0 0 0 0 0 0
0 0 0 0 0 0 0 0 0 0 0 0 0 0 0 0 0 0 0 0 0 0 0 0 0 0 0 0 0 0 0 0 0 0 0 0 0 0 0 0 0 0 0 0 0 0 0 0 0 0 0 0 0 0 0 0 0 0 0 0 0 0 0 0 0 0 0 0 0 0 0 0 0 0 0 0 0 0 0 0 0 0 0 0 0 0 0
0 0 0 0 0 0 0 0 0 0 0 0 0 0 0 0 0 0 0 0 0 0 0 0 0 0 0 0 0 0 0 0 0 0 0 0 0 0 0 0 0 0 0 0 0 0 0 0 0 0 0 0 0 0 0 0 0 0 0 0 0 0 0 0 0 0 0 0 0 0 0 0 0 0 0 0 0 0 0 0 0 0 0 0 0 0 0
0 0 0 0 0 0 0 0 0 0 0 0 0 0 0 0 0 0 0 0 0 0 0 0 0 0 0 0 0 0 0 0 0 0 0 0 0 0 0 0 0 0 0 0 0 0 0 0 0 0 0 0 0 0 0 0 0 0 0 0 0 0 0 0 0 0 0 0 0 0 0 0 0 0 0 0 0 0 0 0 0 0 0 0 0 0 0
0 0 0 0 0 0 0 0 0 0 0 0 0 0 0 0 0 0 0 0 0 0 0 0 0 0 0 0 0 0 0 0 0 0 0 0 0 0 0 0 0 0 0 0 0 0 0 0 0 0 0 0 0 0 0 0 0 0 0 0 0 0 0 0 0 0 0 0 0 0 0 0 0 0 0 0 0 0 0 0 0 0 0 0 0 0 0
0 0 0 0 0 0 0 0 0 0 0 0 0 0 0 0 0 0 0 0 0 0 0 0 0 0 0 0 0 0 0 0 0 0 0 0 0 0 0 0 0 0 0 0 0 0 0 0 0 0 0 0 0 0 0 0 0 0 0 0 0 0 0 0 0 0 0 0 0 0 0 0 0 0 0 0 0 0 0 0 0 0 0 0 0 0 0
0 0 0 0 0 0 0 0 0 0 0 0 0 0 0 0 0 0 0 0 0 0 0 0 0 0 0 0 0 0 0 0 0 0 0 0 0 0 0 0 0 0 0 0 0 0 0 0 0 0 0 0 0 0 0 0 0 0 0 0 0 0 0 0 0 0 0 0 0 0 0 0 0 0 0 0 0 0 0 0 0 0 0 0 0 0 0
0 0 0 0 0 0 0 0 0 0 0 0 0 0 0 0 0 0 0 0 0 0 0 0 0 0 0 0 0 0 0 0 0 0 0 0 0 0 0 0 0 0 0 0 0 0 0 0 0 0 0 0 0 0 0 0 0 0 0 0 0 0 0 0 0 0 0 0 0 0 0 0 0 0 0 0 0 0 0 0 0 0 0 0 0 0 0
0 0 0 0 0 0 0 0 0 0 0 0 0 0 0 0 0 0 0 0 0 0 0 0 0 0 0 0 0 0 0 0 0 0 0 0 0 0 0 0 0 0 0 0 0 0 0 0 0 0 0 0 0 0 0 0 0 0 0 0 0 0 0 0 0 0 0 0 0 0 0 0 0 0 0 0 0 0 0 0 0 0 0 0 0 0 0
0 0 0 0 0 0 0 0 0 0 0 0 0 0 0 0 0 0 0 0 0 0 0 0 0 0 0 0 0 0 0 0 0 0 0 0 0 0 0 0 0 0 0 0 0 0 0 0 0 0 0 0 0 0 0 0 0 0 0 0 0 0 0 0 0 0 0 0 0 0 0 0 0 0 0 0 0 0 0 0 0 0 0 0 0 0 0
0 0 0 0 0 0 0 0 0 0 0 0 0 0 0 0 0 0 0 0 0 0 0 0 0 0 0 0 0 0 0 0 0 0 0 0 0 0 0 0 0 0 0 0 0 0 0 0 0 0 0 0 0 0 0 0 0 0 0 0 0 0 0 0 0 0 0 0 0 0 0 0 0 0 0 0 0 0 0 0 0 0 0 0 0 0 0
0 0 0 0 0 0 0 0 0 0 0 0 0 0 0 0 0 0 0 0 0 0 0 0 0 0 0 0 0 0 0 0 0 0 0 0 0 0 0 0 0 0 0 0 0 0 0 0 0 0 0 0 0 0 0 0 0 0 0 0 0 0 0 0 0 0 0 0 0 0 0 0 0 0 0 0 0 0 0 0 0 0 0 0 0 0 0
0 0 0 0 0 0 0 0 0 0 0 0 0 0 0 0 0 0 0 0 0 0 0 0 0 0 0 0 0 0 0 0 0 0 0 0 0 0 0 0 0 0 0 0 0 0 0 0 0 0 0 0 0 0 0 0 0 0 0 0 0 0 0 0 0 0 0 0 0 0 0 0 0 0 0 0 0 0 0 0 0 0 0 0 0 0 0
0 0 0 0 0 0 0 0 0 0 0 0 0 0 0 0 0 0 0 0 0 0 0 0 0 0 0 0 0 0 0 0 0 0 0 0 0 0 0 0 0 0 0 0 0 0 0 0 0 0 0 0 0 0 0 0 0 0 0 0 0 0 0 0 0 0 0 0 0 0 0 0 0 0 0 0 0 0 0 0 0 0 0 0 0 0 0
0 0 0 0 0 0 0 0 0 0 0 0 0 0 0 0 0 0 0 0 0 0 0 0 0 0 0 0 0 0 0 0 0 0 0 0 0 0 0 0 0 0 0 0 0 0 0 0 0 0 0 0 0 0 0 0 0 0 0 0 0 0 0 0 0 0 0 0 0 0 0 0 0 0 0 0 0 0 0 0 0 0 0 0 0 0 0
0 0 0 0 0 0 0 0 0 0 0 0 0 0 0 0 0 0 0 0 0 0 0 0 0 0 0 0 0 0 0 0 0 0 0 0 0 0 0 0 0 0 0 0 0 0 0 0 0 0 0 0 0 0 0 0 0 0 0 0 0 0 0 0 0 0 0 0 0 0 0 0 0 0 0 0 0 0 0 0 0 0 0 0 0 0 0
Wind_Speed
16 16 16 15 14 14 14 14 15 16 16 14 13 8 10 11 9 12 10 8 10 12 12 11 9 6 6 9 1 5 7 2 8 7 9 10 9 10 9 8 8 8 9 9 9 9 9 10 9 9 8 8 6 6 7 6 4 4 4 4 5 6 5 5 4 2 2 3 4 2 2 1 2 3 5 4 3 4 7 9 9 11 11 11 8 9 12
14 15 15 15 15 14 15 17 19 18 16 16 17 16 16 14 14 14 13 10 8 10 12 12 11 6 3 6 4 4 5 5 8 12 11 10 9 10 9 9 7 6 8 8 9 9 9 10 11 10 8 8 8 6 6 6 5 4 3 4 4 5 5 4 4 4 2 3 3 3 4 3 1 1 1 2 3 6 8 9 9 9 9 8 6 9 12
12 12 13 14 16 15 18 19 18 17 17 17 17 15 15 12 13 14 12 8 8 6 8 9 11 8 8 9 9 9 8 8 8 7 9 10 11 11 8 11 9 8 6 7 8 8 9 9 8 8 6 8 8 6 5 5 4 4 5 3 3 3 4 3 2 2 2 3 1 1 3 1 1 0 1 2 3 4 4 5 7 9 8 9 10 10 12
9 11 13 14 16 18 18 17 16 16 14 10 11 10 10 11 10 10 8 8 7 8 10 9 9 12 13 12 12 11 11 13 10 10 11 11 10 10 8 6 11 10 9 7 8 8 9 9 8 7 5 7 6 6 4 4 4 4 4 3 3 2 2 2 2 2 2 1 1 3 2 3 4 5 4 3 3 2 3 2 1 1 2 4 6 9 9
9 11 13 14 14 14 14 9 11 14 15 18 18 17 14 11 10 8 7 8 7 10 11 9 9 11 12 13 12 10 16 9 10 10 11 11 9 10 10 9 9 11 9 7 5 5 8 8 8 8 6 5 6 6 4 2 5 4 5 3 3 2 2 2 2 3 1 1 2 3 4 3 3 3 3 2 2 2 2 2 3 4 4 4 4 3 4
9 12 12 12 11 12 10 5 6 6 12 10 11 9 9 11 9 7 9 7 9 11 9 9 6 7 9 10 11 10 8 9 10 9 11 8 5 6 6 4 8 6 7 7 2 2 4 5 7 5 3 6 5 1 3 5 3 5 7 6 5 5 3 3 2 1 1 2 3 3 3 3 2 2 2 2 2 2 1 2 2 2 3 2 2 3 3
10 9 11 10 12 12 6 10 12 8 10 11 10 10 11 12 11 12 13 10 8 12 11 8 10 5 5 7 11 13 11 11 8 7 7 10 8 8 10 4 5 9 9 9 7 2 4 6 3 1 4 4 3 6 3 3 3 1 2 5 5 4 3 3 2 2 2 3 3 3 2 2 1 1 2 3 3 3 1 1 2 3 3 3 3 1 2
8 9 8 11 10 8 10 10 12 12 9 10 10 10 9 7 10 12 11 11 12 11 12 10 7 9 10 5 8 11 7 7 9 11 10 11 13 12 8 11 6 8 6 7 5 5 5 0 4 5 4 4 2 2 3 1 2 2 2 1 2 3 2 2 1 2 3 3 2 1 0 0 1 2 2 2 3 3 2 1 2 3 3 3 4 3 1
9 8 10 12 12 13 12 7 11 11 10 10 7 4 5 11 13 10 8 8 7 11 9 15 15 9 10 7 5 12 4 9 10 8 10 10 9 8 8 9 7 8 4 3 5 5 3 6 5 3 4 2 0 1 2 4 5 4 2 2 1 2 2 3 2 2 2 1 2 1 1 1 1 1 2 3 3 3 3 2 3 2 3 1 0 2 3
8 10 10 9 9 9 3 9 9 10 10 10 7 6 5 6 9 14 12 10 9 14 11 13 14 10 7 5 6 10 18 13 2 6 6 7 6 12 5 4 3 2 4 0 3 1 4 4 1 4 3 2 3 2 3 4 4 3 5 5 4 2 1 0 1 2 2 2 2 2 1 2 2 1 1 3 4 3 4 3 3 2 1 1 2 7 7
7 8 8 7 7 2 2 5 4 9 8 10 9 2 4 10 15 10 9 9 10 10 12 12 10 8 6 4 5 10 13 14 14 12 10 10 8 4 4 3 2 7 1 3 3 4 8 9 5 3 3 4 4 3 3 4 4 4 3 2 2 2 2 1 1 1 1 1 1 1 2 2 2 2 2 2 3 3 4 3 2 2 1 1 7 6 6
8 8 8 9 3 3 6 8 11 11 8 6 4 3 1 10 15 11 11 11 10 10 11 10 8 7 6 5 8 11 12 13 12 10 10 12 10 11 11 5 3 6 3 2 2 3 6 8 7 4 4 4 3 3 4 3 4 4 4 3 4 3 2 3 3 2 2 3 4 4 3 3 1 2 1 2 3 4 4 3 2 3 3 6 7 6 5
8 7 9 7 2 2 7 11 11 11 9 5 3 5 5 8 10 11 9 10 10 10 9 8 8 7 8 9 9 11 12 12 13 13 10 11 12 12 11 9 9 7 8 9 7 7 6 5 5 5 6 4 4 5 4 4 5 4 4 4 4 4 3 3 4 4 4 3 2 2 2 3 2 1 1 3 3 4 4 3 2 5 7 6 7 6 5
8 7 9 8 3 1 8 8 11 9 4 6 5 6 7 9 10 10 11 10 9 9 10 9 9 9 11 12 12 12 13 13 13 12 11 10 11 12 11 11 9 8 8 5 8 10 9 7 7 6 6 6 6 6 6 6 5 5 5 5 3 3 5 5 4 4 4 4 3 2 1 1 2 2 2 3 3 4 3 4 3 7 5 5 7 6 6
5 6 8 7 7 2 8 9 8 7 5 6 6 7 8 9 10 11 10 9 10 10 10 10 11 12 12 13 13 13 13 13 13 14 14 12 12 11 12 13 12 11 9 10 11 10 8 9 7 6 5 6 7 7 8 6 5 6 6 6 7 7 6 6 4 3 3 4 3 2 3 3 3 3 2 3 4 4 1 4 7 7 6 6 6 6 6
7 6 6 1 2 4 7 9 6 6 5 7 7 7 9 9 10 11 11 11 11 11 11 12 11 12 13 12 14 15 15 14 14 14 14 14 14 13 14 15 14 11 14 13 12 11 10 8 8 9 9 9 7 6 8 7 6 6 7 7 6 7 5 6 6 6 6 6 5 3 4 4 4 4 4 3 3 1 2 4 6 7 5 6 6 6 6
1 4 7 3 2 5 6 7 9 8 10 10 10 10 11 11 10 11 10 11 12 13 13 13 13 13 13 14 14 15 16 17 16 16 16 15 16 15 14 14 12 11 14 13 11 12 10 11 10 8 7 8 8 9 8 7 8 8 7 6 7 7 7 7 6 6 6 6 6 5 4 4 4 5 4 4 1 4 2 4 3 6 6 5 6 6 6
7 9 8 9 8 9 10 7 8 10 11 11 11 12 11 11 12 10 11 12 12 13 13 14 14 14 14 15 16 16 17 17 17 16 18 18 17 17 17 15 15 15 15 14 15 14 13 12 11 8 9 10 12 11 10 10 10 10 10 10 9 7 8 7 8 9 8 6 5 5 5 5 6 4 3 1 5 3 4 3 2 3 5 5 5 6 6
7 6 6 9 11 10 11 12 11 9 9 10 11 12 11 11 13 13 13 14 15 16 16 17 17 18 17 18 17 17 17 17 17 18 18 18 18 18 19 18 15 14 13 14 15 13 11 9 9 10 11 11 11 9 8 9 9 9 9 9 8 6 6 7 7 6 6 6 6 6 6 6 6 4 3 3 4 4 4 5 5 4 5 5 6 6 7
7 6 7 10 11 11 10 8 8 9 13 15 14 12 11 12 12 12 14 15 16 15 15 16 18 19 18 18 17 17 17 17 18 18 19 19 19 18 18 17 14 13 14 15 13 12 11 9 8 8 9 11 12 12 11 11 11 12 11 12 12 10 10 9 8 8 10 11 10 6 4 6 6 1 5 3 5 5 4 6 7 6 6 6 6 7 8
8 9 10 9 10 9 9 10 12 13 12 13 14 14 14 14 14 14 13 13 13 14 15 16 16 17 18 18 17 18 18 17 17 16 17 18 20 19 18 16 16 15 13 13 15 16 14 12 11 10 11 11 13 13 12 12 11 10 9 7 7 8 9 9 8 5 6 5 4 3 1 8 9 8 4 2 4 6 5 2 3 6 6 5 4 5 6
6 6 7 12 8 8 9 12 14 14 14 14 13 12 13 13 13 12 13 13 13 13 12 13 12 13 14 15 15 16 16 16 17 18 18 18 19 18 17 15 17 17 13 14 14 15 14 12 12 13 14 14 12 13 12 11 11 11 10 8 8 8 8 8 7 7 7 7 6 5 1 9 8 7 12 15 8 7 4 7 11 9 7 5 6 7 7
8 10 13 11 9 10 10 11 11 13 13 12 12 13 13 13 13 14 15 15 16 16 15 14 16 17 16 17 15 16 16 16 16 17 18 17 16 16 15 14 14 15 15 13 13 14 14 13 14 13 13 14 13 13 13 12 11 10 9 8 8 8 6 7 6 5 5 5 5 2 7 8 7 6 7 9 16 14 11 11 14 16 16 15 14 12 11
10 10 9 10 9 11 12 13 13 12 11 12 14 12 13 14 14 14 15 15 16 16 16 16 13 14 14 13 13 14 14 14 15 15 15 16 15 14 12 11 11 13 15 14 14 13 12 12 13 13 13 12 12 13 12 11 11 11 11 10 9 8 8 7 6 5 6 7 2 7 7 7 8 7 8 9 7 12 15 15 15 16 16 16 15 14 15
10 11 9 7 8 11 10 12 13 11 9 11 12 13 13 13 12 13 14 13 12 12 12 12 13 12 13 14 13 13 14 13 13 13 13 12 13 13 13 14 14 13 13 13 12 12 12 12 13 13 14 13 13 13 13 12 11 11 11 10 10 9 9 8 7 6 6 5 3 7 8 8 8 7 9 11 10 6 9 14 16 15 13 13 13 13 13
7 8 9 11 11 10 8 9 10 11 12 13 12 11 12 12 12 12 12 11 10 10 12 12 13 13 13 14 12 13 14 15 14 14 13 12 12 12 12 13 12 11 11 12 12 12 13 14 14 14 14 14 14 14 14 13 13 13 13 12 12 10 9 8 8 8 8 4 7 7 8 7 7 8 5 5 8 9 10 7 9 11 12 13 13 15 14
7 8 10 11 11 11 10 11 12 13 12 9 8 9 11 12 12 10 11 10 11 12 12 13 14 14 13 13 14 14 15 15 15 13 12 13 13 12 11 10 11 12 12 12 12 11 12 11 13 15 16 15 14 14 14 14 14 13 12 11 11 11 12 8 8 5 3 7 8 8 8 9 6 6 8 8 7 7 7 8 8 8 6 6 9 9 9
9 9 9 10 11 12 12 12 12 12 7 6 8 10 11 10 10 11 11 11 12 12 11 13 13 14 14 14 14 14 13 14 14 13 13 13 13 12 12 13 13 12 11 11 12 11 11 13 13 13 14 14 14 15 15 15 15 14 12 11 10 8 7 6 5 5 8 9 9 10 10 10 9 6 8 9 8 7 7 7 7 7 6 6 4 5 8
8 7 7 9 12 13 11 9 10 6 4 7 9 8 9 10 9 9 10 10 11 12 12 14 13 13 13 14 13 13 13 13 13 14 13 12 12 12 11 11 11 10 10 10 10 11 10 9 10 11 13 13 14 14 14 14 14 14 13 11 9 8 4 4 6 8 10 11 10 10 10 10 11 9 7 7 6 7 7 7 6 6 7 6 5 4 3
8 9 9 9 11 12 12 10 9 8 7 8 9 8 9 9 9 8 9 10 11 11 12 12 13 14 15 15 14 13 13 12 11 11 11 10 10 9 9 9 8 8 7 6 6 6 7 8 9 10 10 10 11 11 11 10 11 12 11 11 10 8 6 7 8 10 10 10 11 14 10 9 9 9 8 7 7 5 6 6 6 7 7 6 5 5 6
11 11 12 10 8 9 9 8 6 6 8 8 7 8 8 8 8 8 9 10 10 10 12 13 14 16 15 15 14 12 10 9 8 9 9 8 6 6 6 3 2 1 3 2 4 6 7 8 7 9 11 10 8 5 3 6 7 7 7 8 8 11 15 16 12 13 12 10 9 10 10 9 9 9 9 7 6 6 6 6 6 6 6 7 6 5 6
11 11 12 10 9 9 10 8 6 7 7 7 7 8 7 8 9 10 10 10 9 9 11 13 15 16 14 13 12 10 9 9 8 8 8 7 8 8 8 8 8 5 2 0 3 5 8 9 10 11 11 8 6 6 6 5 5 7 8 7 8 9 14 21 15 16 13 11 8 9 9 11 10 9 8 8 7 6 6 6 6 6 7 7 7 6 5
9 10 10 10 9 9 8 7 6 6 6 7 6 7 7 7 7 8 8 8 8 9 10 12 12 11 11 10 10 11 11 8 7 11 12 12 9 7 6 5 5 5 5 6 7 9 11 12 12 12 10 8 10 11 11 11 10 10 11 11 10 11 13 15 17 15 13 11 9 10 9 8 9 9 8 6 5 5 6 7 8 6 4 5 6 5 5
6 8 7 5 5 5 5 5 5 5 6 7 7 8 8 7 8 7 8 7 9 9 9 10 10 10 9 9 10 12 13 11 11 11 11 9 8 6 4 1 5 7 8 10 12 11 10 9 9 10 9 10 11 11 13 13 13 13 14 13 14 14 14 14 15 14 12 10 8 8 8 7 8 8 6 6 6 6 6 6 4 6 8 7 6 4 3
7 6 3 3 3 3 4 5 5 5 6 6 7 7 4 5 7 6 6 7 8 7 7 7 8 8 8 9 11 13 14 13 11 9 9 7 6 5 3 7 10 11 13 13 12 11 12 11 11 10 9 10 11 11 11 13 12 12 12 13 13 12 12 12 12 11 10 9 8 8 8 8 7 7 8 8 7 7 6 5 6 7 8 7 6 5 4
4 2 3 2 3 4 4 4 5 5 5 3 3 3 5 7 7 7 7 6 4 4 6 7 7 7 8 11 11 12 11 10 8 8 10 10 9 7 11 13 12 13 11 13 13 12 11 12 16 16 9 10 10 10 10 9 10 11 11 11 10 10 9 9 9 8 7 6 5 5 5 6 4 5 5 4 4 5 5 5 6 7 8 7 7 5 3
3 3 2 3 4 4 4 4 5 5 4 3 3 5 6 6 7 5 4 4 4 2 4 6 6 7 8 7 6 8 10 11 11 11 9 9 8 11 13 13 13 11 10 11 12 12 10 11 16 17 10 10 10 10 11 13 8 7 7 9 10 9 8 8 7 6 6 5 6 8 9 8 8 7 5 7 7 6 7 8 7 7 6 6 5 6 4
3 2 2 3 2 2 4 3 3 3 4 4 3 4 5 6 6 5 5 4 4 3 2 4 4 3 5 6 6 10 13 13 13 12 11 11 10 12 13 13 12 11 10 9 9 10 9 12 13 10 9 9 9 9 12 16 14 10 9 9 8 8 8 8 7 6 8 8 7 8 8 7 7 7 7 8 8 7 6 7 6 6 6 5 4 3 4
3 2 2 1 2 2 2 3 4 4 6 7 5 5 5 5 6 7 7 6 6 6 6 7 7 5 5 7 6 6 9 10 11 11 10 10 9 14 13 13 12 11 8 7 7 8 11 12 7 9 9 9 8 8 10 12 12 8 8 7 7 7 7 7 8 8 8 8 8 8 8 7 7 7 7 7 7 7 6 6 6 4 5 4 4 4 3
3 3 3 2 0 1 2 2 3 3 4 5 6 6 6 6 6 7 7 7 8 6 8 8 9 8 8 8 8 5 3 6 9 10 11 9 9 9 8 11 13 12 10 10 8 7 11 13 10 8 9 9 8 5 6 9 9 6 7 7 7 7 7 7 7 8 8 8 8 8 7 6 6 6 5 5 6 5 5 4 5 5 4 4 4 3 3
4 3 2 2 1 2 3 2 1 4 3 3 4 5 5 6 6 7 7 8 8 8 8 8 9 9 10 10 9 9 7 4 6 9 9 9 10 10 11 12 11 8 10 9 8 8 11 10 10 9 9 9 8 9 5 9 8 7 7 7 7 7 7 7 6 7 7 7 6 7 6 5 5 5 4 6 5 5 5 5 5 4 5 4 4 4 3
5 5 4 2 2 3 4 3 2 2 3 3 3 4 5 5 5 5 6 7 7 7 7 8 8 7 9 9 8 8 10 10 9 10 12 12 11 9 9 8 7 8 11 10 10 9 8 9 10 9 8 9 9 12 10 6 8 8 7 7 7 6 6 6 7 6 6 6 6 7 6 6 6 6 6 6 6 5 5 5 5 5 5 4 3 3 3
5 6 5 3 3 3 4 3 2 2 1 2 3 3 3 4 4 5 5 6 6 7 7 7 7 7 7 9 9 9 9 10 10 9 9 11 12 12 10 8 7 9 11 6 9 9 10 9 8 7 11 10 8 12 11 8 8 7 7 7 6 7 6 7 6 6 6 6 6 6 6 6 6 6 6 6 5 5 5 5 5 5 4 4 4 3 4
6 6 5 5 4 4 5 3 2 3 2 3 2 3 3 4 4 5 5 5 5 6 6 7 7 7 7 8 8 8 8 8 9 8 7 7 9 11 12 9 9 10 14 7 8 8 9 9 9 12 14 12 11 12 9 8 8 8 8 8 7 7 6 7 6 6 6 6 6 6 6 5 6 6 6 6 6 6 6 5 5 5 5 5 5 4 4
7 6 6 5 5 5 6 6 4 2 1 1 1 2 3 3 4 4 4 5 5 5 5 6 7 7 6 6 6 7 8 8 8 8 8 8 8 9 9 9 9 8 9 11 8 9 9 9 12 17 14 14 11 12 9 8 8 8 7 8 7 7 7 7 6 6 5 6 6 6 5 6 7 7 7 7 6 6 6 5 5 5 5 5 4 4 4
7 7 7 6 6 7 9 1 3 1 2 3 3 4 3 2 2 4 4 4 4 5 6 6 6 7 7 7 5 6 7 8 8 8 7 7 6 5 6 6 6 6 9 11 8 9 9 13 16 15 15 15 12 9 9 8 7 8 8 8 7 7 7 7 7 7 7 6 6 6 7 7 7 7 7 6 6 5 5 5 5 5 5 5 4 4 4
6 7 7 7 6 9 8 1 1 1 2 4 3 3 3 2 2 3 3 3 4 5 5 6 6 6 6 7 6 6 5 5 6 7 7 6 5 5 5 5 5 5 8 9 8 8 7 9 12 14 13 12 12 9 9 9 9 8 9 8 7 7 6 6 6 5 5 6 6 6 6 5 6 6 5 6 7 6 5 5 5 5 4 4 4 4 4
7 7 7 6 7 8 4 4 4 4 5 4 1 2 2 2 1 2 2 2 3 4 5 4 5 6 6 6 7 7 6 5 5 6 6 5 6 6 6 6 7 3 3 7 8 9 13 14 15 14 13 10 8 9 9 9 8 8 8 8 8 7 7 6 6 6 6 6 5 5 5 6 6 6 6 6 6 6 6 5 5 4 4 5 5 5 5
7 6 7 6 9 9 6 5 5 3 6 3 3 2 4 2 2 3 2 2 2 3 4 4 5 5 6 5 6 6 6 6 6 5 5 5 5 5 6 6 9 10 6 6 7 7 9 11 11 11 11 10 8 9 8 8 8 7 7 8 7 7 7 7 6 6 6 5 6 6 6 6 5 5 6 5 6 6 6 5 5 4 4 4 5 5 4
7 6 6 7 9 8 6 6 5 6 6 3 4 4 4 3 4 3 3 2 2 0 3 4 4 4 4 5 5 5 6 6 5 5 5 6 4 4 4 5 4 5 6 6 7 7 8 11 11 10 7 7 8 8 8 8 8 7 7 6 6 6 6 5 5 6 4 4 5 5 6 6 5 6 5 5 6 5 5 5 4 4 4 5 4 5 5
7 7 7 7 8 7 7 7 6 6 6 5 4 4 4 4 2 1 2 1 3 2 3 4 4 4 4 4 4 5 5 6 5 4 3 3 4 4 4 4 5 4 3 4 5 6 6 8 8 7 7 7 8 8 7 7 7 7 7 7 7 7 6 6 6 6 6 6 6 6 6 5 5 5 5 5 4 4 3 3 5 5 5 5 5 5 5
7 8 7 8 9 8 8 7 7 7 7 5 4 4 5 4 3 3 3 1 3 1 3 4 4 4 4 5 5 5 5 4 3 4 4 4 4 4 4 5 5 5 6 6 6 6 6 6 6 8 8 7 7 6 6 7 6 7 6 6 7 7 7 7 6 6 6 6 5 5 6 6 5 5 5 4 3 3 4 5 5 5 5 5 5 4 4
Wind_Direction
266 271 278 284 289 288 298 303 305 303 308 307 296 273 267 268 258 270 287 310 302 302 298 307 320 71 359 308 284 243 271 175 153 174 212 203 186 159 177 158 137 129 129 128 126 117 105 102 102 103 98 91 80 80 80 85 96 102 109 121 120 112 108 107 104 112 92 80 117 115 88 147 220 143 155 181 180 181 172 182 190 204 207 219 228 253 258
268 265 266 268 264 263 264 260 253 247 248 253 251 252 252 262 272 275 281 279 273 293 301 300 301 303 209 224 309 307 243 208 208 206 200 211 205 190 178 152 148 144 137 135 130 132 136 131 131 128 127 126 120 111 104 103 102 83 59 56 82 87 88 94 120 126 147 169 143 163 160 174 149 127 131 161 173 165 181 200 210 203 200 193 201 248 265
271 281 283 279 278 282 284 285 294 297 298 303 310 305 300 283 267 271 280 300 296 313 314 323 321 310 281 267 251 247 270 262 273 249 226 246 256 249 215 164 166 153 157 142 135 128 118 122 120 117 105 107 107 100 101 97 89 103 97 84 80 108 130 123 140 134 109 88 40 114 81 91 115 240 170 166 201 202 207 213 212 210 201 184 200 223 246
277 274 274 277 281 278 277 284 290 293 284 263 262 276 286 288 286 282 293 291 296 315 306 313 340 349 342 332 344 325 277 253 243 247 246 231 242 261 262 217 150 149 164 157 150 137 132 133 132 132 148 155 140 135 143 140 134 108 73 76 103 84 94 142 76 70 67 121 91 77 72 37 28 23 6 1 335 285 239 240 286 262 231 229 210 202 207
269 273 282 286 290 283 270 259 263 267 270 268 265 262 265 267 283 289 282 273 322 4 3 348 358 350 346 350 348 345 343 357 15 339 275 245 227 239 257 255 165 158 171 155 110 120 144 142 140 145 149 125 122 127 134 160 139 125 145 155 139 102 39 32 68 83 90 283 86 83 66 52 49 18 339 316 311 309 289 199 216 250 271 288 303 271 211
284 287 290 299 280 258 257 298 289 289 285 317 324 315 320 330 334 332 321 324 353 331 319 312 307 340 337 336 332 340 322 330 323 353 345 313 309 317 317 278 148 153 117 113 131 80 73 85 77 81 80 94 109 105 161 162 154 174 165 166 155 153 161 151 153 202 216 67 68 65 46 43 34 354 316 304 323 315 278 288 290 249 190 219 287 301 294
269 282 283 273 256 258 293 272 275 299 334 309 288 312 322 318 326 321 317 310 339 340 327 338 335 323 313 336 337 318 341 342 337 338 349 320 337 342 8 359 79 83 84 79 83 141 112 83 89 159 148 147 161 178 188 165 166 200 222 174 149 152 165 142 168 165 136 77 62 47 31 20 16 289 319 303 280 238 230 264 254 244 211 191 212 259 334
279 271 258 256 257 290 279 287 3 337 266 246 263 279 288 321 356 6 356 360 347 335 337 339 320 353 337 8 322 311 357 358 8 6 14 16 26 5 102 84 74 89 92 108 90 61 54 227 204 200 143 114 173 239 154 157 146 205 228 128 199 155 150 148 209 123 124 121 93 97 97 34 307 292 269 297 287 280 243 208 238 270 275 190 185 185 177
266 264 261 265 286 288 282 321 33 19 26 20 16 347 345 346 331 332 332 311 342 318 353 358 342 6 1 345 335 324 342 35 10 354 358 355 45 56 12 21 69 59 46 84 109 66 9 352 2 4 25 58 4 274 230 221 209 207 177 237 254 127 175 208 181 131 119 144 154 145 190 210 256 280 320 301 315 301 270 228 220 233 249 315 124 182 149
248 264 269 271 269 266 36 54 50 38 25 16 9 22 324 10 23 26 360 360 20 7 7 1 358 358 350 360 1 4 0 337 360 1 322 344 27 73 57 82 28 219 198 299 325 199 165 173 349 327 297 226 234 254 261 269 250 232 222 216 212 191 200 241 191 176 172 174 190 174 165 234 231 238 262 260 259 261 260 235 239 237 178 292 44 55 77
254 255 261 262 274 317 9 23 22 55 17 8 326 342 317 21 350 18 352 353 355 2 359 352 348 351 332 42 338 3 347 348 357 357 342 338 341 40 172 244 254 253 310 360 296 321 5 344 326 289 307 327 311 279 269 266 269 270 281 302 319 305 293 306 319 298 256 228 205 190 226 237 215 230 239 269 276 274 272 268 236 240 235 198 90 86 80
251 266 262 263 248 64 26 15 359 9 19 333 338 296 254 15 358 350 3 354 348 343 343 344 343 332 316 351 352 340 328 337 331 321 332 331 330 326 322 294 275 329 3 84 33 344 276 249 239 239 250 258 264 278 283 300 310 305 300 294 280 299 319 289 261 261 230 210 208 212 219 211 201 247 263 269 280 285 288 280 263 216 203 107 103 95 103
254 248 260 268 227 101 14 11 3 339 350 360 321 269 14 334 348 339 353 342 344 339 331 333 330 327 334 334 333 328 328 324 332 338 329 329 329 318 310 319 350 330 345 348 333 301 296 315 330 321 304 287 270 267 263 261 262 268 277 283 291 284 287 301 299 282 270 258 250 228 205 209 194 204 245 283 273 270 274 262 278 64 81 100 96 105 111
249 253 259 247 254 91 272 6 353 318 328 289 17 355 309 345 326 332 330 325 320 323 320 315 301 312 317 318 314 312 315 317 313 306 308 314 309 303 305 322 324 320 298 277 259 257 258 262 265 269 274 276 273 259 253 254 255 257 257 261 272 287 282 273 276 287 293 291 283 261 254 258 232 238 254 257 272 284 268 272 105 106 100 100 103 93 76
259 252 263 258 251 67 326 23 341 30 14 350 351 329 346 317 328 324 317 314 317 323 306 310 314 308 316 314 311 307 302 305 306 309 308 304 297 298 297 292 291 295 298 293 287 285 294 292 287 275 271 267 272 286 280 275 284 281 279 274 270 264 263 266 264 270 280 286 283 287 279 260 238 224 237 267 269 259 273 93 119 115 110 110 115 109 106
270 248 241 243 5 249 323 341 322 356 338 343 338 327 314 327 315 311 315 316 312 308 313 316 309 305 301 299 299 300 299 299 301 298 297 296 293 286 286 287 285 288 283 278 281 288 287 291 287 278 264 260 254 254 261 269 263 267 274 280 287 284 283 283 281 271 265 259 256 241 236 238 240 224 219 233 246 78 18 113 134 128 129 134 128 126 122
294 307 323 2 252 303 323 13 358 346 342 330 326 320 310 306 309 313 309 314 329 332 325 314 310 307 302 300 298 292 290 289 289 290 288 289 290 289 286 289 291 293 290 289 291 290 282 269 266 276 284 285 286 275 279 285 281 274 263 257 251 249 254 262 259 256 248 246 245 248 246 247 246 217 212 220 152 86 75 115 139 138 139 149 149 142 130
324 303 292 308 303 325 343 325 315 318 316 323 311 306 313 327 323 327 324 324 319 316 311 307 302 297 299 295 293 292 292 292 291 288 285 281 279 279 281 277 272 269 267 264 263 261 265 276 278 277 275 266 257 251 243 238 240 250 258 260 265 275 278 273 275 277 275 271 263 252 240 227 236 241 214 159 124 139 107 94 108 133 146 146 144 142 130
312 289 336 318 322 318 307 310 316 319 319 326 4 5 356 348 344 335 323 315 310 308 306 299 299 297 298 296 293 292 291 289 290 291 290 292 291 286 278 272 270 270 271 273 274 275 268 262 270 270 274 277 277 277 275 277 274 272 278 281 274 261 253 265 270 275 280 283 277 276 276 270 257 242 102 102 128 148 149 148 139 136 141 153 150 142 137
268 285 318 326 309 301 315 323 323 330 2 351 346 339 333 328 321 316 316 314 306 304 301 304 303 301 300 301 300 298 298 298 294 292 290 287 285 284 286 285 285 291 288 284 283 294 305 299 294 286 279 281 282 281 275 265 257 250 241 235 234 234 239 236 235 245 250 239 234 243 254 278 309 15 109 142 152 155 184 163 163 155 156 162 163 153 149
296 302 295 296 325 329 316 324 345 348 337 334 326 322 319 314 312 312 310 307 304 304 304 306 302 302 303 298 298 295 293 292 291 292 295 296 295 291 292 297 295 289 296 301 301 296 294 294 290 288 281 275 271 271 269 271 280 287 287 276 266 263 263 266 267 255 252 286 282 261 286 62 54 21 349 169 121 70 37 70 136 146 143 131 128 133 136
284 301 335 5 340 320 322 324 325 324 322 316 314 313 311 315 312 314 312 309 306 300 293 291 288 281 283 288 289 293 294 292 294 293 289 288 290 295 299 305 307 301 303 304 299 297 294 296 296 294 291 285 280 276 275 270 265 268 273 280 277 277 280 266 254 264 272 259 258 257 165 103 90 69 39 39 46 97 79 61 86 97 107 119 114 102 83
318 328 329 334 317 299 297 311 311 311 311 308 308 313 313 314 320 322 319 316 314 311 308 306 305 305 304 302 306 302 299 298 294 292 292 291 287 285 297 312 315 307 298 293 290 286 285 284 281 279 278 280 279 276 278 282 282 278 275 269 266 268 263 262 270 269 273 271 253 264 103 116 111 103 78 39 43 54 76 84 92 89 90 93 95 103 106
297 305 320 322 318 316 314 316 313 308 315 321 319 325 328 327 329 326 320 317 312 313 316 315 316 314 315 315 316 312 311 310 309 306 307 307 307 305 298 288 284 285 287 286 287 290 294 294 289 283 282 285 290 288 280 273 267 265 261 263 267 260 257 256 250 244 252 255 252 112 123 133 127 134 119 107 67 39 52 70 77 89 93 96 98 96 103
330 323 316 326 311 303 312 317 318 318 333 330 319 317 324 325 323 331 326 322 330 335 325 319 322 327 325 321 318 315 315 313 311 313 311 300 292 289 290 291 290 293 295 296 296 296 293 291 289 287 283 279 279 279 275 269 267 266 267 263 258 253 250 246 245 238 233 239 131 128 140 142 135 147 148 135 119 105 60 64 74 79 85 93 100 108 110
291 302 320 318 313 310 315 316 311 319 322 322 326 335 329 327 333 329 328 334 332 330 329 330 336 340 340 329 325 324 317 312 313 311 302 302 303 301 297 296 296 292 292 289 287 289 291 290 289 286 282 278 275 273 271 270 268 265 260 257 256 257 254 245 239 239 231 167 130 136 126 126 138 138 128 103 121 121 122 120 88 73 66 68 79 85 80
320 340 330 319 312 316 321 322 319 323 330 359 349 331 329 334 336 328 325 337 347 348 345 348 345 340 335 331 325 319 314 311 309 306 307 307 303 298 297 297 299 302 303 303 298 294 296 293 288 283 279 277 275 269 266 264 259 256 254 254 256 250 242 236 245 231 108 107 127 126 120 110 98 128 119 115 109 109 116 119 112 104 102 58 44 69 99
10 349 338 318 314 314 321 316 309 321 3 349 337 339 338 338 337 341 351 358 357 354 353 354 348 345 339 336 328 321 316 312 311 308 303 297 295 296 296 297 298 297 299 298 297 296 289 290 293 293 287 284 279 272 263 255 254 253 248 244 246 248 248 204 183 132 138 133 132 133 132 128 123 121 123 124 118 108 97 90 100 106 96 86 91 60 87
342 330 336 322 322 316 306 307 312 338 0 353 355 353 356 351 349 358 4 0 358 355 357 355 353 347 341 335 332 326 321 314 309 306 301 298 295 293 293 293 291 292 293 292 294 301 308 312 302 291 285 276 271 264 254 249 244 239 236 238 239 234 212 145 138 124 127 127 133 132 130 131 129 125 119 107 101 107 113 120 118 118 110 114 108 94 78
333 324 320 325 333 316 313 322 345 6 16 8 7 13 10 7 360 1 1 2 3 5 3 356 352 347 342 337 333 328 323 317 309 306 305 303 301 300 293 284 280 279 285 317 339 331 320 302 286 285 291 294 281 255 243 236 229 226 222 218 218 204 169 148 128 119 113 117 127 129 127 125 127 125 120 118 121 130 128 132 132 124 134 146 147 152 174
320 320 323 329 353 349 335 344 16 27 23 19 20 15 12 6 3 1 5 3 7 4 359 355 348 341 339 336 333 328 323 315 312 313 316 316 317 315 308 269 212 131 59 19 318 311 290 286 302 328 320 321 334 333 261 226 215 212 211 202 197 183 165 135 123 120 114 112 122 125 125 126 128 128 131 139 148 147 142 139 141 142 147 155 168 174 191
318 323 328 341 348 357 354 5 22 34 30 24 16 18 17 10 6 7 7 1 4 1 350 350 344 340 332 328 329 329 335 337 335 346 354 5 7 3 14 52 70 85 131 235 321 330 357 356 348 333 324 322 340 11 30 51 91 103 94 90 98 99 114 120 116 114 116 122 132 127 129 133 136 138 148 159 163 154 149 153 166 166 166 169 186 187 162
328 328 333 353 352 355 6 36 32 36 29 24 20 11 11 9 8 8 7 355 355 356 350 342 337 327 329 333 338 350 348 338 359 12 10 6 359 353 1 47 82 96 62 29 21 22 21 8 348 335 341 8 32 37 44 55 61 71 77 84 84 99 109 110 111 118 122 127 131 133 135 135 140 149 158 154 157 167 173 166 180 171 142 111 92 72 61
316 328 330 355 4 358 8 39 49 42 37 25 9 5 357 360 7 15 10 358 354 355 346 334 325 326 329 335 352 0 359 5 19 11 360 353 348 332 287 233 44 48 48 36 29 22 8 357 346 341 351 21 38 51 55 57 63 68 76 77 85 90 97 106 114 118 124 133 140 135 132 137 149 161 159 167 174 154 149 174 161 110 106 102 99 103 98
319 349 61 67 68 84 55 52 46 34 26 19 351 336 340 360 12 30 16 5 1 344 326 317 323 328 336 351 4 8 7 5 360 360 355 350 349 341 12 48 44 43 41 35 25 10 354 350 354 350 1 27 38 48 64 73 76 85 89 96 103 109 114 118 118 123 130 134 138 141 151 160 174 166 159 161 152 159 180 171 126 122 115 111 113 92 60
355 45 102 96 91 64 48 42 38 31 21 6 306 311 2 13 17 19 5 360 347 337 326 326 328 335 355 3 7 6 357 353 347 356 12 13 8 12 37 40 35 34 32 33 19 359 347 350 350 354 16 32 37 38 45 61 86 89 97 98 101 101 101 102 106 111 112 121 123 143 158 158 141 113 118 131 126 117 103 98 105 107 105 104 105 109 105
36 47 97 99 70 50 40 26 15 11 359 351 357 2 12 8 13 19 7 360 344 308 321 329 339 354 357 352 0 9 13 8 8 10 10 13 15 34 41 39 33 26 22 29 358 346 339 344 352 360 16 36 32 34 34 41 56 60 85 93 99 105 109 112 113 125 141 143 122 106 91 81 72 78 84 85 82 77 76 78 72 73 84 103 121 130 131
112 106 79 65 55 18 35 21 354 343 330 341 24 19 16 3 2 7 6 1 356 351 358 348 335 325 335 344 10 22 20 13 9 7 9 19 21 44 45 41 31 23 26 12 338 341 340 343 353 12 20 34 36 34 35 37 39 49 56 57 60 65 66 66 66 66 64 63 63 70 76 76 79 69 66 65 64 65 67 70 76 87 86 79 77 84 98
144 140 119 73 34 32 1 14 10 355 346 355 15 25 14 13 6 7 5 6 7 4 13 7 357 355 345 349 1 26 30 25 15 10 11 20 27 49 53 43 39 31 17 342 334 351 357 352 356 25 33 24 29 43 38 42 44 46 44 53 63 71 68 69 66 65 61 61 62 64 68 69 73 78 79 77 77 69 63 66 70 75 85 87 75 73 72
152 154 160 155 59 2 346 4 355 344 348 3 6 17 12 11 16 11 8 3 6 3 16 14 6 6 6 10 7 28 58 37 28 20 17 18 30 44 55 46 32 23 8 360 4 9 4 5 14 21 16 22 19 28 58 52 51 49 53 54 56 56 62 69 75 76 77 75 72 68 71 69 73 79 89 98 102 98 99 94 90 91 90 90 95 87 73
176 176 165 196 248 284 281 273 36 352 357 356 14 11 27 18 20 15 14 10 8 6 15 17 12 13 14 14 17 13 26 64 54 37 25 22 29 31 39 37 16 6 10 8 5 5 14 21 22 18 11 2 12 5 36 70 58 59 56 57 61 64 66 65 73 79 88 88 89 90 88 84 77 77 75 82 83 91 91 90 88 79 77 81 82 77 71
184 195 205 207 224 262 280 313 30 13 355 356 28 24 36 30 28 27 21 19 13 13 11 19 17 20 20 18 18 22 19 20 42 54 44 36 30 29 39 39 14 10 355 355 5 11 15 18 16 14 1 359 4 9 29 59 63 60 58 53 57 60 70 72 75 73 70 79 87 93 91 92 91 88 77 74 68 67 71 77 78 80 81 76 71 79 89
206 208 205 202 246 271 273 273 266 289 10 23 19 33 36 44 24 31 31 31 21 15 15 19 10 17 28 26 25 26 26 22 26 40 57 54 44 38 37 29 20 11 358 8 17 23 18 16 10 1 359 357 4 11 39 53 52 56 61 62 62 62 63 62 65 66 70 75 81 86 87 87 83 83 83 80 78 74 72 69 69 66 74 76 82 64 61
207 217 212 209 231 247 264 281 10 341 347 50 32 18 25 55 43 35 40 40 30 26 26 24 21 17 23 30 30 28 30 26 29 26 33 41 47 40 30 27 24 12 3 18 33 26 22 13 10 2 3 6 17 34 38 45 54 56 52 46 48 51 57 61 63 65 70 75 72 69 64 66 71 76 80 80 76 68 61 58 59 56 56 53 49 47 43
213 217 216 213 227 237 241 236 196 170 169 200 146 71 16 36 67 61 41 46 44 39 36 35 32 23 19 28 51 47 39 37 37 31 31 32 33 31 19 20 22 24 12 13 32 30 23 13 3 5 11 14 32 40 47 47 44 46 59 63 54 45 40 44 53 67 74 80 81 85 88 88 82 74 65 60 63 72 75 78 78 72 68 63 63 58 57
211 214 220 210 223 236 251 254 77 238 242 268 221 133 94 55 66 89 61 52 60 59 57 47 41 37 29 24 39 70 71 50 42 48 59 51 45 34 31 33 23 14 27 30 34 26 19 4 6 5 9 18 26 47 52 43 38 37 43 54 60 55 54 53 46 41 34 39 54 66 67 65 66 72 78 83 83 82 78 76 77 71 71 70 61 56 55
215 224 219 221 223 241 241 221 206 229 254 258 258 117 98 96 54 71 89 93 80 78 73 64 52 45 47 45 33 28 47 62 55 44 46 50 57 51 39 40 49 37 45 44 29 25 12 10 8 8 14 28 38 43 48 52 47 42 34 31 36 53 56 62 65 69 66 68 66 68 75 84 91 94 90 87 81 77 71 65 71 76 81 82 84 76 64
211 222 227 223 231 236 200 190 208 223 237 254 324 104 125 111 113 124 127 118 107 100 93 89 82 65 50 56 62 53 39 47 63 50 36 47 47 38 30 15 5 2 98 67 50 23 13 10 11 12 15 31 52 52 49 50 55 53 50 46 45 44 50 50 42 42 47 51 58 66 64 62 65 74 82 81 79 73 72 71 73 70 65 67 65 57 55
216 221 224 219 236 229 199 199 213 232 254 190 162 163 126 175 194 203 161 148 165 131 110 104 99 102 93 73 66 65 68 66 66 66 52 51 52 53 42 27 15 14 39 49 41 40 14 8 12 15 22 30 51 55 54 52 52 56 61 64 63 58 55 51 52 56 59 57 60 56 57 57 64 70 79 84 92 94 87 71 61 50 50 55 64 67 61
212 215 219 217 233 218 199 206 213 231 235 184 186 166 164 208 232 179 124 102 62 59 87 83 88 80 75 82 84 80 71 64 78 94 86 62 58 67 70 55 43 52 57 54 47 34 22 14 9 9 36 47 42 48 58 55 51 45 50 53 63 73 70 64 54 54 62 70 70 76 77 78 74 60 52 53 59 65 80 97 106 117 81 56 52 52 56
217 214 215 220 230 221 206 214 219 220 227 188 186 159 163 228 238 100 112 163 199 153 108 106 87 89 90 78 74 80 92 93 71 44 65 106 99 65 39 64 62 39 60 76 73 66 50 31 19 4 26 49 54 49 45 52 58 56 52 47 32 25 34 58 64 47 29 26 45 53 59 68 65 67 69 74 75 82 79 80 77 70 61 57 48 49 50
233 226 221 221 223 214 213 210 219 232 229 194 184 172 195 215 161 173 140 126 287 133 120 103 102 94 100 110 101 84 67 65 82 81 55 47 49 63 53 38 45 48 43 45 52 59 69 72 47 20 19 36 44 51 54 49 50 56 57 51 47 47 38 30 38 55 47 37 43 53 41 36 54 63 56 48 58 72 73 73 73 71 65 61 54 49 51